Pamplona, Spain

10:33 AM CEST on May 22, 2018 (GMT +0200)
Pamplona

Weather History for LEPP - December, 2013

Change the Weather History Date:

Wednesday, December 25, 2013

  Actual Average Record
Temperature  
Mean Temperature 46 °F -  
Max Temperature 52 °F 46 °F 62 °F (1997)
Min Temperature 41 °F 35 °F 15 °F (2001)
Degree Days  
Heating Degree Days 18    
Moisture  
Dew Point 39 °F    
Average Humidity 75    
Maximum Humidity 87    
Minimum Humidity 52    
Precipitation  
Precipitation 0.12 in - - ()
Sea Level Pressure  
Sea Level Pressure 29.42 in    
Wind  
Wind Speed 9 mph ()    
Max Wind Speed 20 mph    
Max Gust Speed 31 mph    
Visibility 7.6 miles    
Events Rain    
Averages and records for this station are not official NWS values.
T = Trace of Precipitation, MM = Missing Value Source: Averaged Metar Reports

Daily Weather History Graph

Daily Weather History Graph

Search for Another Location

Airport or City:

Astronomy

Dec. 25, 2013 Rise Set
Actual Time 8:35 AM CET 5:37 PM CET
Civil Twilight 8:03 AM CET 6:10 PM CET
Nautical Twilight 7:27 AM CET 6:45 PM CET
Astronomical Twilight 6:53 AM CET 7:20 PM CET
Moon 12:40 AM CET (12/25) 12:41 PM CET (12/25)
Length of Visible Light 10h 06m
Length of Day
9h 02m
Waning Gibbous, 51% of the Moon is Illuminated
Dec 25
Waning Gibbous
Dec 25
Last Quarter
Jan 1
New
Jan 8
First Quarter
Jan 16
Full

Hourly Weather History & Observations

Time (CET) Temp. Windchill Dew Point Humidity Pressure Visibility Wind Dir Wind Speed Gust Speed Precip Events Conditions
12:00 AM 51.8 °F - 42.8 °F 71% 29.47 in 6.2 mi SSW 12.7 mph - N/A   Partly Cloudy
5:30 AM 48.2 °F - 44.6 °F 87% 29.42 in 6.2 mi SSW 19.6 mph 31.1 mph N/A Rain Light Rain
6:00 AM 48.2 °F - 42.8 °F 82% 29.39 in 6.2 mi SSW 15.0 mph - N/A Rain Light Rain
6:30 AM 48.2 °F - 41.0 °F 76% 29.42 in 6.2 mi SSW 8.1 mph - N/A   Scattered Clouds
7:00 AM 46 °F - 40 °F 72% 29.45 in 19 mi Calm Calm - -   Partly Cloudy
7:00 AM 48.2 °F - 41.0 °F 76% 29.42 in 6.2 mi SSW 4.6 mph - N/A   Scattered Clouds
7:30 AM 44.6 °F 39.2 °F 41.0 °F 87% 29.42 in 6.2 mi South 10.4 mph - N/A   Scattered Clouds
8:00 AM 44.6 °F 39.2 °F 41.0 °F 87% 29.42 in 6.2 mi SSE 10.4 mph - N/A   Scattered Clouds
8:30 AM 46.4 °F 42.4 °F 41.0 °F 81% 29.42 in 6.2 mi South 8.1 mph - N/A   Mostly Cloudy
9:00 AM 46.4 °F 42.9 °F 41.0 °F 81% 29.42 in 6.2 mi South 6.9 mph - N/A   Mostly Cloudy
9:30 AM 46.4 °F - 41.0 °F 81% 29.42 in 6.2 mi South 2.3 mph - N/A   Scattered Clouds
10:00 AM 44 °F - 39 °F 77% 29.44 in 19 mi SSW 5.8 mph - -   Mostly Cloudy
10:00 AM 46.4 °F 41.9 °F 41.0 °F 81% 29.42 in 6.2 mi SE 9.2 mph - N/A   Mostly Cloudy
10:30 AM 46.4 °F - 41.0 °F 81% 29.42 in 6.2 mi South 1.2 mph - N/A   Scattered Clouds
11:00 AM 50.0 °F - 41.0 °F 71% 29.39 in 6.2 mi SSE 3.5 mph - N/A   Partly Cloudy
11:30 AM 50.0 °F - 42.8 °F 76% 29.42 in 6.2 mi ESE 11.5 mph - N/A   Partly Cloudy
12:00 PM 50.0 °F - 39.2 °F 66% 29.42 in 6.2 mi SSE 10.4 mph - N/A   Partly Cloudy
12:30 PM 51.8 °F - 41.0 °F 67% 29.39 in 6.2 mi SE 10.4 mph - N/A   Mostly Cloudy
1:00 PM 53 °F - 41 °F 52% 29.39 in 19 mi South 13.8 mph - -   Mostly Cloudy
1:00 PM 53.6 °F - 41.0 °F 62% 29.39 in 6.2 mi South 12.7 mph - N/A   Mostly Cloudy
1:30 PM 50.0 °F - 41.0 °F 71% 29.39 in 6.2 mi South 10.4 mph - N/A   Mostly Cloudy
2:00 PM 50.0 °F - 42.8 °F 76% 29.36 in 6.2 mi South 13.8 mph - N/A Rain Light Rain
2:30 PM 48.2 °F - 42.8 °F 82% 29.36 in 3.1 mi South 12.7 mph 25.3 mph N/A Rain Rain
3:00 PM 44.6 °F 36.9 °F 41.0 °F 87% 29.36 in 5.6 mi SSW 18.4 mph 31.1 mph N/A Rain Rain
3:30 PM 44.6 °F 42.2 °F 41.0 °F 87% 29.39 in 6.2 mi ESE 4.6 mph - N/A Rain Light Rain
4:00 PM 44 °F - 41 °F 86% 29.40 in 19 mi SSE 5.8 mph - - Rain Light Rain
4:00 PM 46.4 °F 41.9 °F 42.8 °F 87% 29.36 in 6.2 mi South 9.2 mph - N/A   Partly Cloudy
4:30 PM 46.4 °F 42.4 °F 41.0 °F 81% 29.36 in 6.2 mi South 8.1 mph - N/A   Partly Cloudy
5:00 PM 46.4 °F 43.5 °F 41.0 °F 81% 29.36 in 6.2 mi SSW 5.8 mph - N/A   Scattered Clouds
5:30 PM 46.4 °F 41.9 °F 39.2 °F 76% 29.39 in 6.2 mi WSW 9.2 mph - N/A   Partly Cloudy
6:00 PM 46.4 °F 41.5 °F 37.4 °F 71% 29.39 in 6.2 mi WSW 10.4 mph - N/A   Scattered Clouds
6:30 PM 46.4 °F 41.1 °F 37.4 °F 71% 29.42 in 6.2 mi SW 11.5 mph - N/A   Scattered Clouds
7:00 PM 44 °F - 36 °F 63% 29.45 in 19 mi WSW 9.2 mph - -   Partly Cloudy
7:00 PM 46.4 °F 42.4 °F 35.6 °F 66% 29.42 in 6.2 mi SW 8.1 mph - N/A   Mostly Cloudy
7:30 PM 44.6 °F 42.2 °F 35.6 °F 71% 29.44 in 6.2 mi SW 4.6 mph - N/A   Mostly Cloudy
8:00 PM 46.4 °F 44.3 °F 33.8 °F 62% 29.44 in 6.2 mi WSW 4.6 mph - N/A   Scattered Clouds
8:30 PM 44.6 °F 40.2 °F 33.8 °F 66% 29.44 in 6.2 mi WSW 8.1 mph - N/A   Mostly Cloudy
9:00 PM 44.6 °F 38.8 °F 33.8 °F 66% 29.47 in 6.2 mi WSW 11.5 mph - N/A   Scattered Clouds
9:30 PM 42.8 °F 37.0 °F 33.8 °F 70% 29.47 in 6.2 mi WSW 10.4 mph - N/A   Scattered Clouds
10:00 PM 42.8 °F 38.0 °F 33.8 °F 70% 29.50 in 6.2 mi WSW 8.1 mph - N/A   Partly Cloudy
10:30 PM 41.0 °F - 33.8 °F 76% 29.50 in 6.2 mi Variable 1.2 mph - N/A   Scattered Clouds
11:00 PM 41.0 °F 36.4 °F 33.8 °F 76% 29.53 in 6.2 mi South 6.9 mph - N/A   Scattered Clouds
11:30 PM 42.8 °F 38.6 °F 33.8 °F 70% 29.53 in 6.2 mi WSW 6.9 mph - N/A Rain Light Rain